Location: Wheeling
(40.0640°N, 80.7210°W)
Time: 13:36:52
(UTC-04:00)

ISS - Pass Details

Date: 03 August 2021
Orbit: 419 x 423 km, 51.6° (Epoch: 19 September)

Event Time Altitude Azimuth Distance (km) Brightness Sun altitude
Rises 20:49:03 0° 306° (NW) 2,378 2.4 -3.4°
Reaches altitude 10° 20:51:09 10° 306° (NW) 1,509 0.9 -3.8°
Maximum altitude 20:54:33 82° 218° (SW) 429 -3.7 -4.4°
Drops below altitude 10° 20:57:54 10° 131° (SE) 1,497 -1.6 -4.9°
Enters shadow 20:58:42 - 131° (SE) 1,824 -1.2 -5.1°
